When you browse on this site, cookies collect data to enhance your experience and personalize the content and advertising you see.
Visit our Privacy Policy to learn more. By continuing to use the site, you agree to this use of cookies and data.
EN

Hourly Weather Petrov

Today, 28 September, Monday

Time Temperature Precipitation Wind Pressure Humidity
00:00 +21°C° 0 mm 2 mps 758 mmHg 61%
01:00 +21°C° 0 mm 2 mps 758 mmHg 64%
02:00 +20°C° 0 mm 2 mps 758 mmHg 67%
03:00 +20°C° 0 mm 1 mps 759 mmHg 70%
04:00 +20°C° 0 mm 1 mps 759 mmHg 72%
05:00 +20°C° 0 mm 1 mps 759 mmHg 74%
06:00 +19°C° 0 mm 1 mps 759 mmHg 77%
07:00 +21°C° 0 mm 1 mps 759 mmHg 72%
08:00 +23°C° 0 mm 1 mps 760 mmHg 68%
09:00 +24°C° 0 mm 1 mps 760 mmHg 64%
10:00 +26°C° 0 mm 1 mps 760 mmHg 59%
11:00 +28°C° 0 mm 1 mps 760 mmHg 54%
12:00 +30°C° 0 mm 1 mps 760 mmHg 49%
13:00 +30°C° 0 mm 1 mps 760 mmHg 45%
14:00 +31°C° 0 mm 1 mps 759 mmHg 41%
15:00 +32°C° 0 mm 1 mps 759 mmHg 37%
16:00 +30°C° 0.1 mm 1 mps 759 mmHg 41%
17:00 +29°C° 0.1 mm 1 mps 759 mmHg 44%
18:00 +27°C° 0.1 mm 1 mps 759 mmHg 48%
19:00 +26°C° 0 mm 2 mps 759 mmHg 51%
20:00 +25°C° 0 mm 2 mps 759 mmHg 53%
21:00 +24°C° 0 mm 3 mps 759 mmHg 56%
22:00 +22°C° 0 mm 3 mps 759 mmHg 57%
23:00 +21°C° 0 mm 3 mps 759 mmHg 58%

Tomorrow, 29 September, Tuesday

Time Temperature Precipitation Wind Pressure Humidity
00:00 +21°C° 0 mm 3 mps 759 mmHg 59%
01:00 +20°C° 0 mm 3 mps 759 mmHg 61%
02:00 +19°C° 0 mm 3 mps 759 mmHg 63%
03:00 +19°C° 0 mm 3 mps 759 mmHg 64%
04:00 +18°C° 0 mm 3 mps 759 mmHg 66%
05:00 +18°C° 0 mm 3 mps 759 mmHg 68%
06:00 +17°C° 0 mm 3 mps 759 mmHg 70%
07:00 +19°C° 0 mm 3 mps 758 mmHg 64%
08:00 +20°C° 0 mm 3 mps 758 mmHg 59%
09:00 +22°C° 0 mm 3 mps 758 mmHg 54%
10:00 +25°C° 0 mm 3 mps 758 mmHg 48%
11:00 +28°C° 0 mm 2 mps 757 mmHg 42%
12:00 +30°C° 0 mm 2 mps 757 mmHg 36%
13:00 +30°C° 0 mm 3 mps 756 mmHg 35%
14:00 +31°C° 0 mm 3 mps 756 mmHg 33%
15:00 +33°C° 0 mm 3 mps 755 mmHg 31%
16:00 +30°C° 0 mm 4 mps 755 mmHg 34%
17:00 +29°C° 0 mm 4 mps 755 mmHg 37%
18:00 +27°C° 0 mm 5 mps 754 mmHg 40%
19:00 +26°C° 0 mm 5 mps 754 mmHg 42%
20:00 +25°C° 0 mm 5 mps 754 mmHg 45%
21:00 +23°C° 0 mm 5 mps 753 mmHg 47%
22:00 +22°C° 0 mm 4 mps 753 mmHg 49%
23:00 +21°C° 0 mm 4 mps 753 mmHg 51%

Day after tomorrow, 30 September, Wednesday

Time Temperature Precipitation Wind Pressure Humidity
00:00 +21°C° 0 mm 4 mps 752 mmHg 52%
01:00 +20°C° 0 mm 4 mps 752 mmHg 54%
02:00 +19°C° 0 mm 4 mps 752 mmHg 55%
03:00 +19°C° 0 mm 4 mps 752 mmHg 56%
04:00 +18°C° 0 mm 4 mps 752 mmHg 58%
05:00 +18°C° 0 mm 4 mps 752 mmHg 60%
06:00 +17°C° 0 mm 3 mps 751 mmHg 61%
07:00 +19°C° 0 mm 4 mps 751 mmHg 59%
08:00 +20°C° 0 mm 4 mps 751 mmHg 56%
09:00 +21°C° 0 mm 4 mps 751 mmHg 53%
10:00 +24°C° 0 mm 3 mps 751 mmHg 48%
11:00 +26°C° 0 mm 3 mps 751 mmHg 43%
12:00 +28°C° 0 mm 3 mps 751 mmHg 38%
13:00 +28°C° 0.1 mm 2 mps 750 mmHg 40%
14:00 +28°C° 0.1 mm 2 mps 750 mmHg 41%
15:00 +28°C° 0.1 mm 2 mps 750 mmHg 43%
16:00 +26°C° 0.2 mm 2 mps 750 mmHg 48%
17:00 +25°C° 0.2 mm 2 mps 750 mmHg 54%
18:00 +24°C° 0.2 mm 2 mps 750 mmHg 59%
19:00 +23°C° 0.2 mm 2 mps 751 mmHg 64%
20:00 +21°C° 0.2 mm 2 mps 751 mmHg 70%
21:00 +20°C° 0.2 mm 2 mps 751 mmHg 75%
22:00 +19°C° 0.1 mm 2 mps 751 mmHg 78%
23:00 +20°C° 0.1 mm 1 mps 752 mmHg 81%

1 October, Thursday

Time Temperature Precipitation Wind Pressure Humidity
00:00 +19°C° 0.1 mm 1 mps 752 mmHg 84%
01:00 +19°C° 0.6 mm 1 mps 752 mmHg 84%
02:00 +19°C° 0.6 mm 1 mps 752 mmHg 84%
03:00 +18°C° 0.6 mm 2 mps 752 mmHg 83%
04:00 +18°C° 0.5 mm 2 mps 752 mmHg 83%
05:00 +17°C° 0.5 mm 2 mps 752 mmHg 83%
06:00 +17°C° 0.5 mm 2 mps 753 mmHg 82%
07:00 +18°C° 0.2 mm 2 mps 752 mmHg 79%
08:00 +18°C° 0.2 mm 3 mps 752 mmHg 75%
09:00 +19°C° 0.2 mm 3 mps 752 mmHg 72%
10:00 +21°C° 0.1 mm 3 mps 752 mmHg 65%
11:00 +24°C° 0.1 mm 3 mps 752 mmHg 58%
12:00 +25°C° 0.1 mm 3 mps 752 mmHg 51%
13:00 +26°C° 0.3 mm 3 mps 752 mmHg 51%
14:00 +26°C° 0.3 mm 2 mps 751 mmHg 50%
15:00 +26°C° 0.3 mm 2 mps 751 mmHg 49%
16:00 +25°C° 0.3 mm 2 mps 751 mmHg 55%
17:00 +24°C° 0.3 mm 2 mps 751 mmHg 61%
18:00 +22°C° 0.3 mm 1 mps 751 mmHg 67%
19:00 +21°C° 0.4 mm 1 mps 752 mmHg 71%
20:00 +20°C° 0.4 mm 1 mps 752 mmHg 75%
21:00 +20°C° 0.4 mm 1 mps 752 mmHg 79%
22:00 +18°C° 0.4 mm 2 mps 752 mmHg 80%
23:00 +18°C° 0.4 mm 2 mps 752 mmHg 81%

2 October, Friday

Time Temperature Precipitation Wind Pressure Humidity
00:00 +17°C° 0.4 mm 2 mps 752 mmHg 81%
01:00 +17°C° 0.1 mm 2 mps 752 mmHg 82%
02:00 +16°C° 0.1 mm 2 mps 752 mmHg 82%
03:00 +16°C° 0.1 mm 2 mps 752 mmHg 82%
04:00 +16°C° 0 mm 2 mps 753 mmHg 83%
05:00 +15°C° 0 mm 2 mps 753 mmHg 84%
06:00 +15°C° 0 mm 1 mps 753 mmHg 85%
07:00 +18°C° 0 mm 1 mps 753 mmHg 79%
08:00 +19°C° 0 mm 1 mps 753 mmHg 74%
09:00 +21°C° 0 mm 1 mps 753 mmHg 69%
10:00 +23°C° 0 mm 1 mps 753 mmHg 64%
11:00 +25°C° 0 mm 1 mps 753 mmHg 58%
12:00 +27°C° 0 mm 1 mps 754 mmHg 53%
13:00 +27°C° 0 mm 1 mps 754 mmHg 50%
14:00 +28°C° 0 mm 1 mps 753 mmHg 48%
15:00 +28°C° 0 mm 2 mps 753 mmHg 45%
16:00 +27°C° 0.1 mm 2 mps 754 mmHg 49%
17:00 +26°C° 0.1 mm 2 mps 754 mmHg 52%
18:00 +25°C° 0.1 mm 2 mps 754 mmHg 55%
19:00 +23°C° 0.3 mm 2 mps 754 mmHg 59%
20:00 +21°C° 0.3 mm 2 mps 754 mmHg 63%
21:00 +21°C° 0.3 mm 1 mps 754 mmHg 67%
22:00 +20°C° 0.1 mm 1 mps 755 mmHg 69%
23:00 +20°C° 0.1 mm 1 mps 755 mmHg 71%

3 October, Saturday

Time Temperature Precipitation Wind Pressure Humidity
00:00 +19°C° 0.1 mm 1 mps 755 mmHg 73%
01:00 +19°C° 0.4 mm 1 mps 755 mmHg 77%
02:00 +19°C° 0.4 mm 1 mps 755 mmHg 80%
03:00 +18°C° 0.4 mm 1 mps 755 mmHg 83%
04:00 +18°C° 0 mm 1 mps 756 mmHg 85%
05:00 +18°C° 0 mm 1 mps 756 mmHg 87%
06:00 +18°C° 0 mm 1 mps 756 mmHg 88%
07:00 +19°C° 0 mm 1 mps 756 mmHg 84%
08:00 +20°C° 0 mm 1 mps 757 mmHg 81%
09:00 +22°C° 0 mm 1 mps 757 mmHg 77%
10:00 +23°C° 0 mm 1 mps 757 mmHg 71%
11:00 +25°C° 0 mm 2 mps 757 mmHg 65%
12:00 +26°C° 0 mm 2 mps 757 mmHg 60%
13:00 +27°C° 0 mm 2 mps 757 mmHg 56%
14:00 +27°C° 0 mm 2 mps 757 mmHg 53%
15:00 +28°C° 0 mm 2 mps 757 mmHg 49%
16:00 +26°C° 0.3 mm 1 mps 757 mmHg 53%
17:00 +25°C° 0.3 mm 1 mps 757 mmHg 57%
18:00 +23°C° 0.3 mm 1 mps 757 mmHg 62%
19:00 +23°C° 0.1 mm 1 mps 757 mmHg 64%
20:00 +22°C° 0.1 mm 1 mps 757 mmHg 65%
21:00 +21°C° 0.1 mm 1 mps 757 mmHg 67%
22:00 +21°C° 0 mm 1 mps 757 mmHg 68%
23:00 +20°C° 0 mm 1 mps 757 mmHg 69%
Show more